This is the latest recevied weather packets stored in our database for station/object HS5AU-13. If no packets are shown the sender has not sent any weather packets the latest 10 day(s).
| Time | Temp. | Humidity | Pressure | Rain* | Wind** | Luminosity | Snow |
|---|---|---|---|---|---|---|---|
| 1788167102 | 26.11° C | 90% | 1000.3 hPa | 0 mm | - | 186 W/m² | - |
| 1788166502 | 25.56° C | 85% | 1001.3 hPa | 0 mm | - | 216 W/m² | - |
| 1788165902 | 26.11° C | 91% | 999.6 hPa | 0 mm | - | 262 W/m² | - |
| 1788165302 | 26.11° C | 90% | 999.7 hPa | 0 mm | - | 174 W/m² | - |
| 1788164702 | 26.11° C | 91% | 1000.2 hPa | 0 mm | - | 301 W/m² | - |
| 1788164102 | 26.11° C | 91% | 1000.1 hPa | 0 mm | - | 385 W/m² | - |
| 1788163502 | 25.56° C | 95% | 999.9 hPa | 0 mm | - | 305 W/m² | - |
| 1788162902 | 25.56° C | 94% | 1000.1 hPa | 0 mm | - | 276 W/m² | - |
| 1788162302 | 25.56° C | 91% | 1000.3 hPa | 0 mm | - | 271 W/m² | - |
| 1788161702 | 25.56° C | 97% | 999.6 hPa | 0 mm | - | 210 W/m² | - |
| 1788161102 | 25.56° C | 96% | 999.8 hPa | 0 mm | - | 221 W/m² | - |
| 1788160502 | 25.56° C | 91% | 999.9 hPa | 0 mm | - | 314 W/m² | - |
| 1788159902 | 25° C | 94% | 1000 hPa | 0 mm | - | 288 W/m² | - |
| 1788159302 | 25° C | 99% | 1000 hPa | 0 mm | - | 191 W/m² | - |
| 1788158702 | 25° C | 97% | 1000.1 hPa | 0 mm | - | 137 W/m² | - |
| 1788158102 | 25° C | 99% | 1000.7 hPa | 0 mm | - | 161 W/m² | - |
| 1788157502 | 25° C | 99% | 1000.4 hPa | 0 mm | - | 212 W/m² | - |
| 1788156902 | 25.56° C | 98% | 1000.5 hPa | 0 mm | - | 122 W/m² | - |
| 1788156302 | 25.56° C | 99% | 1000.6 hPa | 0 mm | - | 274 W/m² | - |
| 1788155702 | 25.56° C | 99% | 1000.7 hPa | 0 mm | - | 273 W/m² | - |
| 1788155102 | 25° C | 98% | 1000.7 hPa | 0 mm | - | 211 W/m² | - |
| 1788154502 | 25° C | 97% | 1000.8 hPa | 0 mm | - | 208 W/m² | - |
| 1788153902 | 25.56° C | 95% | 1001.1 hPa | 0 mm | - | 324 W/m² | - |
| 1788153302 | 25.56° C | 99% | 1000.7 hPa | 0 mm | - | 516 W/m² | - |
| 1788152702 | 25° C | 99% | 1002.3 hPa | 0 mm | - | 425 W/m² | - |
* Rain latest hour (hover to see other rain measurements)
** Current wind speed in m/s (hover to see current wind gust speed)